Total_Precipitation_Accumulation
0.00 0.00 0.00 0.00 0.00 0.00 0.00 0.01 0.01 0.01 0.00 0.00 0.00 0.00 0.00 0.00 0.00 0.00 0.00 0.00 0.00 0.00 0.00 0.00 0.00 0.00 0.00 0.00 0.01 0.01 0.02 0.04 0.16 0.28 0.32 0.38 0.45 0.51
0.00 0.00 0.00 0.00 0.00 0.00 0.00 0.00 0.00 0.00 0.00 0.00 0.00 0.00 0.00 0.00 0.00 0.00 0.00 0.00 0.00 0.00 0.00 0.00 0.00 0.00 0.00 0.00 0.00 0.00 0.01 0.02 0.02 0.04 0.15 0.29 0.44 0.48
0.00 0.00 0.00 0.00 0.00 0.00 0.00 0.00 0.00 0.00 0.00 0.00 0.00 0.00 0.00 0.00 0.00 0.00 0.00 0.00 0.00 0.00 0.00 0.00 0.00 0.00 0.00 0.00 0.00 0.00 0.01 0.02 0.03 0.04 0.05 0.10 0.18 0.26
0.00 0.00 0.00 0.00 0.00 0.00 0.00 0.00 0.00 0.00 0.01 0.02 0.00 0.00 0.00 0.00 0.00 0.00 0.00 0.00 0.00 0.00 0.00 0.00 0.00 0.00 0.00 0.00 0.00 0.00 0.01 0.01 0.02 0.03 0.04 0.08 0.13 0.19
0.00 0.00 0.00 0.00 0.00 0.00 0.00 0.00 0.00 0.01 0.01 0.03 0.01 0.00 0.00 0.00 0.00 0.00 0.00 0.00 0.00 0.00 0.00 0.00 0.00 0.01 0.01 0.00 0.00 0.00 0.00 0.00 0.00 0.01 0.01 0.02 0.04 0.10
0.00 0.00 0.00 0.00 0.00 0.00 0.00 0.00 0.02 0.02 0.01 0.02 0.02 0.02 0.01 0.00 0.00 0.00 0.00 0.00 0.00 0.00 0.00 0.01 0.01 0.01 0.02 0.01 0.01 0.01 0.00 0.01 0.01 0.01 0.01 0.01 0.01 0.02
0.00 0.00 0.00 0.00 0.00 0.00 0.01 0.02 0.03 0.03 0.03 0.05 0.05 0.03 0.01 0.00 0.00 0.00 0.01 0.01 0.00 0.01 0.02 0.01 0.01 0.01 0.01 0.00 0.00 0.00 0.00 0.00 0.01 0.01 0.01 0.01 0.01 0.00
0.00 0.00 0.00 0.00 0.00 0.00 0.01 0.01 0.03 0.05 0.06 0.08 0.06 0.03 0.01 0.01 0.00 0.01 0.03 0.05 0.05 0.01 0.02 0.01 0.00 0.00 0.00 0.00 0.00 0.00 0.00 0.00 0.01 0.01 0.01 0.01 0.00 0.00
0.00 0.00 0.00 0.00 0.00 0.01 0.01 0.01 0.03 0.06 0.04 0.03 0.02 0.02 0.01 0.01 0.03 0.05 0.06 0.05 0.02 0.00 0.02 0.02 0.01 0.01 0.01 0.00 0.01 0.00 0.01 0.01 0.01 0.01 0.01 0.01 0.00 0.00
0.00 0.00 0.00 0.00 0.01 0.01 0.01 0.06 0.05 0.02 0.00 0.00 0.00 0.01 0.02 0.03 0.04 0.03 0.04 0.04 0.03 0.02 0.03 0.09 0.03 0.01 0.00 0.00 0.01 0.02 0.04 0.05 0.05 0.03 0.02 0.01 0.00 0.00
0.00 0.00 0.01 0.01 0.00 0.02 0.08 0.07 0.01 0.00 0.00 0.00 0.00 0.01 0.00 0.00 0.01 0.05 0.08 0.07 0.05 0.02 0.02 0.10 0.05 0.04 0.01 0.00 0.00 0.04 0.05 0.02 0.00 0.00 0.00 0.00 0.01 0.00
0.00 0.01 0.00 0.00 0.02 0.09 0.05 0.01 0.01 0.01 0.01 0.01 0.00 0.00 0.00 0.00 0.00 0.02 0.07 0.17 0.08 0.05 0.01 0.15 0.06 0.06 0.10 0.01 0.01 0.01 0.02 0.03 0.02 0.02 0.01 0.01 0.01 0.00
0.03 0.01 0.00 0.01 0.06 0.02 0.00 0.00 0.01 0.01 0.00 0.00 0.00 0.00 0.00 0.00 0.01 0.01 0.02 0.12 0.16 0.09 0.01 0.15 0.13 0.04 0.08 0.03 0.01 0.01 0.04 0.11 0.11 0.10 0.07 0.06 0.05 0.03
0.02 0.02 0.02 0.03 0.00 0.00 0.00 0.01 0.01 0.00 0.00 0.00 0.01 0.01 0.01 0.01 0.01 0.01 0.00 0.02 0.05 0.09 0.03 0.07 0.15 0.05 0.06 0.03 0.01 0.01 0.07 0.22 0.17 0.09 0.04 0.08 0.17 0.17
0.02 0.04 0.02 0.00 0.00 0.00 0.00 0.00 0.00 0.00 0.01 0.02 0.02 0.01 0.01 0.01 0.01 0.00 0.01 0.00 0.01 0.01 0.03 0.07 0.10 0.05 0.06 0.04 0.02 0.02 0.13 0.27 0.26 0.13 0.13 0.10 0.11 0.13
0.05 0.03 0.00 0.00 0.00 0.00 0.00 0.00 0.00 0.01 0.01 0.03 0.03 0.02 0.01 0.01 0.01 0.02 0.05 0.03 0.05 0.04 0.07 0.07 0.06 0.07 0.06 0.05 0.06 0.06 0.12 0.24 0.31 0.25 0.19 0.23 0.26 0.24
0.02 0.00 0.00 0.00 0.00 0.00 0.00 0.00 0.00 0.00 0.01 0.03 0.04 0.03 0.02 0.02 0.02 0.03 0.08 0.10 0.15 0.13 0.11 0.10 0.08 0.08 0.13 0.10 0.09 0.09 0.09 0.21 0.32 0.29 0.16 0.18 0.25 0.29
0.00 0.00 0.00 0.01 0.01 0.00 0.00 0.00 0.00 0.01 0.03 0.05 0.04 0.05 0.07 0.08 0.08 0.07 0.13 0.16 0.13 0.11 0.11 0.10 0.09 0.09 0.11 0.12 0.11 0.12 0.14 0.21 0.28 0.22 0.13 0.08 0.18 0.22
0.00 0.01 0.01 0.01 0.01 0.01 0.01 0.01 0.01 0.02 0.05 0.07 0.08 0.09 0.09 0.09 0.10 0.14 0.15 0.13 0.11 0.08 0.06 0.05 0.05 0.10 0.14 0.12 0.15 0.17 0.16 0.23 0.19 0.15 0.11 0.07 0.10 0.16
0.01 0.01 0.01 0.01 0.01 0.01 0.01 0.02 0.05 0.04 0.05 0.07 0.09 0.08 0.09 0.10 0.11 0.12 0.11 0.10 0.06 0.02 0.01 0.01 0.02 0.09 0.13 0.12 0.09 0.17 0.17 0.17 0.11 0.08 0.09 0.08 0.09 0.11
0.01 0.01 0.01 0.01 0.01 0.01 0.02 0.05 0.07 0.08 0.10 0.10 0.07 0.07 0.05 0.07 0.06 0.04 0.02 0.01 0.00 0.00 0.00 0.00 0.00 0.01 0.03 0.04 0.06 0.09 0.13 0.11 0.07 0.04 0.06 0.04 0.04 0.06
0.01 0.02 0.01 0.01 0.01 0.03 0.06 0.07 0.07 0.06 0.06 0.05 0.04 0.03 0.02 0.03 0.02 0.01 0.01 0.01 0.01 0.01 0.00 0.00 0.00 0.00 0.00 0.01 0.02 0.03 0.03 0.04 0.03 0.02 0.01 0.00 0.00 0.01
0.01 0.01 0.01 0.01 0.02 0.05 0.07 0.07 0.06 0.05 0.04 0.04 0.02 0.02 0.03 0.02 0.01 0.01 0.01 0.02 0.03 0.03 0.02 0.03 0.02 0.01 0.00 0.00 0.00 0.00 0.00 0.00 0.00 0.00 0.01 0.00 0.00 0.00